• In Romania
  • List of Countries
  • For 7 days
  • Water Temperature
  • Satellite Maps
  • Weather Map
  • Weather Widgets
  • user-avatar
    Login

    Hourly Weather Namibe

    Today, 26 June, Monday

    Time Temperature Precipitation Wind Pressure Humidity
    00:00 +24°C° 0 mm 1 mps 759 mmHg 70%
    01:00 +24°C° 0 mm 1 mps 759 mmHg 70%
    02:00 +24°C° 0 mm 1 mps 759 mmHg 69%
    03:00 +23°C° 0 mm 1 mps 759 mmHg 69%
    04:00 +23°C° 0 mm 1 mps 759 mmHg 68%
    05:00 +23°C° 0 mm 1 mps 759 mmHg 67%
    06:00 +23°C° 0 mm 1 mps 759 mmHg 65%
    07:00 +23°C° 0 mm 1 mps 759 mmHg 63%
    08:00 +26°C° 0 mm 1 mps 759 mmHg 53%
    09:00 +29°C° 0 mm 1 mps 759 mmHg 42%
    10:00 +32°C° 0 mm 1 mps 759 mmHg 31%
    11:00 +34°C° 0 mm 2 mps 759 mmHg 29%
    12:00 +35°C° 0 mm 3 mps 759 mmHg 27%
    13:00 +36°C° 0 mm 5 mps 759 mmHg 25%
    14:00 +35°C° 0 mm 5 mps 758 mmHg 30%
    15:00 +34°C° 0 mm 5 mps 758 mmHg 35%
    16:00 +33°C° 0 mm 5 mps 758 mmHg 40%
    17:00 +30°C° 0 mm 5 mps 759 mmHg 47%
    18:00 +29°C° 0 mm 4 mps 759 mmHg 54%
    19:00 +27°C° 0 mm 3 mps 760 mmHg 61%
    20:00 +26°C° 0 mm 3 mps 760 mmHg 62%
    21:00 +26°C° 0 mm 3 mps 760 mmHg 62%
    22:00 +26°C° 0 mm 3 mps 761 mmHg 63%
    23:00 +25°C° 0 mm 3 mps 761 mmHg 63%

    Tomorrow, 27 June, Tuesday

    Time Temperature Precipitation Wind Pressure Humidity
    00:00 +25°C° 0 mm 3 mps 760 mmHg 63%
    01:00 +25°C° 0 mm 3 mps 760 mmHg 62%
    02:00 +25°C° 0 mm 4 mps 760 mmHg 62%
    03:00 +25°C° 0 mm 4 mps 760 mmHg 62%
    04:00 +23°C° 0 mm 4 mps 759 mmHg 62%
    05:00 +23°C° 0 mm 4 mps 759 mmHg 61%
    06:00 +23°C° 0 mm 4 mps 760 mmHg 60%
    07:00 +23°C° 0 mm 4 mps 760 mmHg 59%
    08:00 +27°C° 0 mm 4 mps 760 mmHg 48%
    09:00 +30°C° 0 mm 4 mps 760 mmHg 38%
    10:00 +34°C° 0 mm 4 mps 761 mmHg 27%
    11:00 +35°C° 0 mm 5 mps 760 mmHg 23%
    12:00 +37°C° 0 mm 5 mps 760 mmHg 20%
    13:00 +39°C° 0 mm 6 mps 759 mmHg 16%
    14:00 +38°C° 0 mm 7 mps 759 mmHg 18%
    15:00 +38°C° 0 mm 7 mps 758 mmHg 20%
    16:00 +37°C° 0 mm 8 mps 758 mmHg 21%
    17:00 +34°C° 0 mm 7 mps 758 mmHg 25%
    18:00 +32°C° 0 mm 7 mps 759 mmHg 29%
    19:00 +28°C° 0 mm 6 mps 759 mmHg 33%
    20:00 +28°C° 0 mm 6 mps 760 mmHg 34%
    21:00 +27°C° 0 mm 6 mps 760 mmHg 35%
    22:00 +26°C° 0 mm 5 mps 761 mmHg 35%
    23:00 +26°C° 0 mm 5 mps 760 mmHg 36%

    Day after tomorrow, 28 June, Wednesday

    Time Temperature Precipitation Wind Pressure Humidity
    00:00 +25°C° 0 mm 5 mps 760 mmHg 37%
    01:00 +23°C° 0 mm 5 mps 760 mmHg 38%
    02:00 +23°C° 0 mm 5 mps 759 mmHg 39%
    03:00 +22°C° 0 mm 5 mps 759 mmHg 41%
    04:00 +22°C° 0 mm 5 mps 759 mmHg 42%
    05:00 +22°C° 0 mm 5 mps 759 mmHg 41%
    06:00 +22°C° 0 mm 5 mps 759 mmHg 40%
    07:00 +22°C° 0 mm 5 mps 759 mmHg 39%
    08:00 +26°C° 0 mm 5 mps 759 mmHg 31%
    09:00 +29°C° 0 mm 5 mps 760 mmHg 23%
    10:00 +34°C° 0 mm 5 mps 760 mmHg 16%
    11:00 +36°C° 0 mm 5 mps 759 mmHg 13%
    12:00 +38°C° 0 mm 6 mps 758 mmHg 11%
    13:00 +40°C° 0 mm 7 mps 758 mmHg 9%
    14:00 +40°C° 0 mm 7 mps 757 mmHg 10%
    15:00 +39°C° 0 mm 8 mps 757 mmHg 11%
    16:00 +39°C° 0 mm 8 mps 756 mmHg 12%
    17:00 +35°C° 0 mm 7 mps 757 mmHg 18%
    18:00 +33°C° 0 mm 7 mps 757 mmHg 23%
    19:00 +29°C° 0 mm 6 mps 758 mmHg 28%
    20:00 +28°C° 0 mm 5 mps 758 mmHg 29%
    21:00 +28°C° 0 mm 5 mps 758 mmHg 30%
    22:00 +27°C° 0 mm 4 mps 759 mmHg 30%
    23:00 +26°C° 0 mm 4 mps 759 mmHg 29%

    29 June, Thursday

    Time Temperature Precipitation Wind Pressure Humidity
    00:00 +26°C° 0 mm 4 mps 758 mmHg 29%
    01:00 +25°C° 0 mm 4 mps 758 mmHg 28%
    02:00 +25°C° 0 mm 4 mps 758 mmHg 28%
    03:00 +23°C° 0 mm 4 mps 758 mmHg 27%
    04:00 +23°C° 0 mm 4 mps 758 mmHg 27%
    05:00 +23°C° 0 mm 4 mps 758 mmHg 26%
    06:00 +23°C° 0 mm 4 mps 758 mmHg 25%
    07:00 +23°C° 0 mm 4 mps 759 mmHg 24%
    08:00 +27°C° 0 mm 4 mps 759 mmHg 20%
    09:00 +30°C° 0 mm 4 mps 759 mmHg 15%
    10:00 +35°C° 0 mm 3 mps 760 mmHg 10%
    11:00 +36°C° 0 mm 4 mps 759 mmHg 11%
    12:00 +37°C° 0 mm 5 mps 759 mmHg 11%
    13:00 +39°C° 0 mm 5 mps 758 mmHg 12%
    14:00 +37°C° 0 mm 5 mps 758 mmHg 17%
    15:00 +35°C° 0 mm 6 mps 758 mmHg 23%
    16:00 +34°C° 0 mm 6 mps 758 mmHg 28%
    17:00 +32°C° 0 mm 5 mps 758 mmHg 35%
    18:00 +28°C° 0 mm 4 mps 759 mmHg 43%
    19:00 +26°C° 0 mm 3 mps 760 mmHg 50%
    20:00 +26°C° 0 mm 3 mps 760 mmHg 53%
    21:00 +25°C° 0 mm 3 mps 761 mmHg 56%
    22:00 +24°C° 0 mm 3 mps 761 mmHg 58%
    23:00 +24°C° 0 mm 3 mps 761 mmHg 58%

    30 June, Friday

    Time Temperature Precipitation Wind Pressure Humidity
    00:00 +22°C° 0 mm 3 mps 761 mmHg 57%
    01:00 +22°C° 0 mm 3 mps 761 mmHg 56%
    02:00 +22°C° 0 mm 3 mps 760 mmHg 55%
    03:00 +21°C° 0 mm 3 mps 760 mmHg 54%
    04:00 +21°C° 0 mm 3 mps 760 mmHg 53%
    05:00 +21°C° 0 mm 4 mps 760 mmHg 50%
    06:00 +21°C° 0 mm 4 mps 760 mmHg 48%
    07:00 +22°C° 0 mm 4 mps 760 mmHg 45%
    08:00 +26°C° 0 mm 3 mps 760 mmHg 36%
    09:00 +29°C° 0 mm 3 mps 761 mmHg 27%
    10:00 +33°C° 0 mm 3 mps 761 mmHg 18%
    11:00 +35°C° 0 mm 4 mps 760 mmHg 16%
    12:00 +36°C° 0 mm 4 mps 759 mmHg 15%
    13:00 +39°C° 0 mm 5 mps 759 mmHg 13%
    14:00 +37°C° 0 mm 5 mps 758 mmHg 16%
    15:00 +36°C° 0 mm 6 mps 758 mmHg 20%
    16:00 +35°C° 0 mm 6 mps 757 mmHg 24%
    17:00 +33°C° 0 mm 6 mps 758 mmHg 32%
    18:00 +29°C° 0 mm 5 mps 759 mmHg 40%
    19:00 +27°C° 0 mm 4 mps 759 mmHg 49%
    20:00 +26°C° 0 mm 4 mps 760 mmHg 51%
    21:00 +25°C° 0 mm 3 mps 760 mmHg 53%
    22:00 +25°C° 0 mm 3 mps 760 mmHg 56%
    23:00 +24°C° 0 mm 3 mps 760 mmHg 55%

    1 July, Saturday

    Time Temperature Precipitation Wind Pressure Humidity
    00:00 +24°C° 0 mm 3 mps 760 mmHg 54%
    01:00 +24°C° 0 mm 2 mps 760 mmHg 54%
    02:00 +24°C° 0 mm 3 mps 759 mmHg 52%
    03:00 +24°C° 0 mm 3 mps 759 mmHg 49%
    04:00 +24°C° 0 mm 3 mps 759 mmHg 47%
    05:00 +24°C° 0 mm 3 mps 759 mmHg 46%
    06:00 +24°C° 0 mm 3 mps 759 mmHg 44%
    07:00 +24°C° 0 mm 3 mps 759 mmHg 42%
    08:00 +27°C° 0 mm 4 mps 760 mmHg 35%
    09:00 +30°C° 0 mm 4 mps 760 mmHg 27%
    10:00 +34°C° 0 mm 4 mps 760 mmHg 19%
    11:00 +36°C° 0 mm 4 mps 759 mmHg 18%
    12:00 +37°C° 0 mm 5 mps 759 mmHg 17%
    13:00 +40°C° 0 mm 5 mps 758 mmHg 15%
    14:00 +38°C° 0 mm 6 mps 758 mmHg 20%
    15:00 +36°C° 0 mm 6 mps 757 mmHg 25%
    16:00 +35°C° 0 mm 7 mps 757 mmHg 29%
    17:00 +32°C° 0 mm 6 mps 758 mmHg 35%
    18:00 +29°C° 0 mm 5 mps 758 mmHg 41%
    19:00 +27°C° 0 mm 4 mps 759 mmHg 47%
    20:00 +27°C° 0 mm 4 mps 759 mmHg 49%
    21:00 +26°C° 0 mm 3 mps 759 mmHg 51%
    22:00 +25°C° 0 mm 3 mps 760 mmHg 53%
    23:00 +25°C° 0 mm 3 mps 759 mmHg 52%
    Show more